Location: Marsån
(66.4167°N, 22.2833°E)
Time: 10:38:48
(UTC+00:00)

BlueWalker 3 - Pass Details

Date: 24 February 2024
Orbit: 485 x 496 km, 53.2° (Epoch: 15 April)

Event Time Altitude Azimuth Distance (km) Brightness Sun altitude
Rises 17:04:12 0° 222° (SW) 2,559 6.2 -10.7°
Reaches altitude 10° 17:07:57 10° 184° (S) 1,676 4.6 -11.0°
Maximum altitude 17:08:53 11° 170° (S) 1,629 4.4 -11.1°
Drops below altitude 10° 17:09:49 10° 155° (SSE) 1,675 4.3 -11.2°
Enters shadow 17:10:59 - 140° (SE) 1,853 4.4 -11.3°
